Find Starlink 30556

NORAD ID: 58031 Int'l Des: 2023-156 Owner: SPXS Country: US Constellation: starlink operational
LEOCIRCULAR

Live Position

Loading 3D Globe...

About Starlink 30556

Description loading...

Upcoming Passes

Passes for default location (London). Set your location on the main map for personalized predictions.

Altitude History

Loading altitude history...

Two-Line Element Set

1 58031U 23156D 26125.50001156 .00029311 00000-0 90002-3 0 9998
2 58031 53.1585 184.4797 0001331 74.9151 121.6251 15.33514781 5800
Epoch: May 5, 2026 • Age: 6 hours

Current Status

Altitude 468.4 km
Velocity 7.64 km/s
Sub-Earth Point 40.69°N, 169.37°W
Launch Date Oct 9, 2023
Age 2.5 years
Type internet

Technical Details

Classification Payload
Mass 730.00 kg
Dry Mass 700.00 kg
Total Mass 730.00 kg
Length 0.30 m
Diameter 4.10 m
Span 29.00 m
Shape Box + pan
Manufacturer SPXS
Bus Type Starlink V2M
Phase Status In Orbit
Owner/State SPXS/US

Most Searched